Showing default

OCEANSAT 2, 35931

Orbit data source: Space-Track

OCEANSAT 2, 35931 is a payload satellite owned by ISRO (IN) in SSO that was launched on Wed, 23 Sep 2009 UTC via a PSLV launch vehicle from the Sirharikota (SRI). Payload-class satellites include a variety of spacecraft equipped with specific instruments for various scientific and technological missions. These include communications satellites like Starlink; space stations such as the ISS; scientific satellites like the Hubble; Earth observation satellites from companies like Planet Labs, Umbra, and HawkEye 360; GPS; miniature CubeSats for education and research; and military/defense satellites.

Loading next visibility...
Identifier
35931, 2009-051A
Orbit
SSO
Country
Flag of ININ / IND
Related business
Manufacturer
ISAC/HAL
Mission
Operational Civil Imaging
Bus & Motor
IRS, Unknown motor
Mass
960 kg wet, 860 kg dry
Launch date (UTC)
2009-09-23 (16 years ago)
Launch vehicle
PSLV
Launch site
Sirharikota (SRI)
Object type
Payload
Rocket body
Debris
Shape & HBR
Box + 2 Pan, 5.8 m
Radar Cross Section
12.816 m², Large (>1 m²)

Expand to show TLE details & history
Last TLE update: 15 hours ago

TLE from 15 hours ago
0 OCEANSAT 2
1 35931U 09051A   25348.97816106 -.00000125  00000-0 -59637-4 0  9990
2 35931  98.2221 349.3518 0016158  39.1844 321.0489 13.99624213853564
Epoch: 2025-12-14T23:28Z
TLE epoch observation values (Epoch: 2025-12-14T23:28:33.115Z)
Latitude
-0.00006°
Longitude
-86.6695°
Altitude
888.865 km
Speed
7.412 km/s
True Right ascension
23h 17m 24s
True Declination
0° 00' 00"
Sunlit
Object was in daylight at epoch
Visualization orbit readout
Latitude
Unknown
Longitude
Unknown
Altitude
Unknown
Speed
Unknown
Apparent Right ascension
Unknown
Apparent Declination
Unknown
Sunlit
N/A
Visualization observer readout
Local Sidereal Time
13:22:43
Azimuth
Unknown
Elevation
Unknown
Doppler factor
Unknown
Orbital elements
Apogee altitude
904.008 km
Perigee altitude
880.513 km
Semi-major axis
7,270.397 km
Eccentricity
0.00162
Inclination
98.2221°
RAAN
349.3518°
Arg. of periapsis
39.1844°
True anomaly
320.93232°
Mean anomaly
321.0489°
Eccentric anomaly
320.99063°
Mean motion
3.50111 °/min
Orbital period
102.82 mins
BSTAR
-0.000059637
Loading maneuver chart data...
Computing Atmospheric mass density...
Loading historical data...
Loading historical data...
Loading historical data...
Loading historical data...
Loading historical data...
Loading historical data...
Loading historical data...
Other satellites on launch #51 in the year 2009 (2009-09-23 UTC)

Documentation

Showing up to 5 results
|